[[{"header":{"parameterUnit":"m.s-1","parameterCategory":1,"la1":30.2991,"la2":30.254,"lo1":-89.0895,"lo2":-89.0444,"dy":0.0017,"dx":0.0017,"nx":28,"ny":28,"refTime":"2024-03-28T09:00:00:Z","depth":0,"parameterNumber":2,"parameterNumberName":"U-component_of_WINDS"},"data":[0,0,0,0,0,0,0,0,0,0,0,0,0,0,0,0,0,0,0,0,0,0,0,0,0,0,0,0,0,0,0,0,0,0,0,0,0,0,0,0,0,0,0,0,0,0,0,0,0,0,0,0,0,0,0,0,0,0,-0.3767,-0.3767,0,-0.3736,-0.3735,-0.3735,-0.3743,-0.3744,-0.3744,-0.3745,-0.371,-0.3709,-0.3707,0,0,0,0,0,0,0,0,0,0,0,0,0,-0.3832,-0.3831,-0.3767,-0.3767,-0.3767,-0.3736,-0.3735,-0.3735,-0.3743,-0.3744,-0.3744,-0.3745,-0.371,-0.3709,-0.3707,0,0,0,0,0,0,0,0,0,0,0,0,0,-0.3802,-0.383,-0.3768,-0.3767,-0.3767,-0.3736,-0.3735,-0.3735,-0.3743,-0.3744,-0.3745,-0.3745,-0.3711,-0.3709,-0.3707,-0.3674,0,0,-0.37,-0.3699,0,0,0,0,0,0,0,0,-0.3804,-0.38,-0.3767,-0.3767,-0.3767,-0.3744,-0.3745,-0.3714,-0.3742,-0.3752,-0.3745,-0.3746,-0.372,-0.3717,-0.3709,-0.3672,-0.367,-0.3699,-0.3698,-0.3697,-0.3696,0,0,0,0,0,0,0,-0.3806,-0.3801,-0.3755,-0.3767,-0.3766,-0.3767,-0.3764,-0.3739,-0.3731,-0.3751,-0.3752,-0.3748,-0.372,-0.3712,-0.3709,-0.367,-0.37,-0.3697,-0.3696,-0.3695,-0.3602,-0.36,0,0,0,0,0,0,-0.3809,-0.3803,-0.3756,-0.3754,-0.3788,-0.3765,-0.3762,-0.375,-0.3731,-0.3729,-0.3747,-0.3748,-0.3715,-0.3711,-0.3707,-0.3666,-0.3697,-0.3695,-0.3694,-0.3603,-0.3601,-0.36,0,0,0,0,0,0,-0.381,-0.3805,-0.3757,-0.3779,-0.3773,-0.3763,-0.375,-0.3749,-0.3741,-0.3728,-0.3727,-0.374,-0.3716,-0.3711,-0.3682,-0.3665,-0.3694,-0.3692,-0.3604,-0.3602,-0.3601,-0.3584,0,0,0,0,0,0,-0.3812,-0.3805,-0.3793,-0.3778,-0.3771,-0.3733,-0.3749,-0.3748,-0.3737,-0.3738,-0.3721,-0.3719,-0.3716,-0.3685,-0.3679,-0.3662,-0.369,-0.3605,-0.3603,-0.3601,-0.3586,-0.3582,-0.3579,0,0,0,0,0,-0.3814,-0.379,-0.3793,-0.3787,-0.3757,-0.3732,-0.3728,-0.3725,-0.3736,-0.3723,-0.3715,-0.372,-0.3668,-0.3682,-0.3676,-0.3658,-0.3606,-0.3604,-0.3601,-0.3588,-0.3583,-0.3579,0,0,0,0,0,0,-0.3803,-0.3788,-0.3791,-0.3761,-0.3748,-0.3733,-0.3718,-0.3721,-0.3704,-0.3705,-0.3702,-0.3698,-0.3668,-0.366,-0.3676,-0.3624,-0.3638,-0.3635,-0.363,-0.3625,-0.3622,-0.3624,-0.3688,0,0,0,0,0,-0.3797,-0.3779,-0.3767,-0.3741,-0.3734,-0.3727,-0.3716,-0.3715,-0.3701,-0.3695,-0.3685,-0.367,-0.3651,-0.3638,-0.3619,-0.3585,-0.358,-0.3569,-0.3566,-0.3563,-0.3559,-0.3538,-0.3533,-0.3592,-0.3592,-0.3592,0,0,-0.3784,-0.3774,-0.3763,-0.3739,-0.3728,-0.3708,-0.3722,-0.3701,-0.3686,-0.3692,-0.3664,-0.3656,-0.3639,-0.3607,-0.3592,-0.3599,-0.3542,-0.3559,-0.3557,-0.3555,-0.3535,-0.353,-0.3525,-0.359,-0.359,-0.3591,0,0,-0.3751,-0.3742,-0.3719,-0.3708,-0.3692,-0.3687,-0.3682,-0.3667,-0.3662,-0.3633,-0.3637,-0.3618,-0.3585,-0.3572,-0.3561,-0.3521,-0.3524,-0.3515,-0.3495,-0.3475,-0.3471,-0.3467,-0.3451,-0.3445,-0.3512,-0.3512,-0.3512,0,-0.3737,-0.3708,-0.3707,-0.3685,-0.3673,-0.3678,-0.3654,-0.3643,-0.3622,-0.3613,-0.3622,-0.3578,-0.3567,-0.3532,-0.3522,-0.3513,-0.3505,-0.3517,-0.3472,-0.3468,-0.3464,-0.3449,-0.3443,-0.3511,-0.3511,-0.3511,-0.3511,0,-0.3691,-0.3671,-0.3654,-0.3634,-0.362,-0.3597,-0.3591,-0.3578,-0.3577,-0.3571,-0.3541,-0.3528,-0.3506,-0.3498,-0.3497,-0.3461,-0.3466,-0.3473,-0.3487,-0.3457,-0.3443,-0.3437,-0.3509,-0.3509,-0.351,-0.351,0,0,-0.365,-0.3628,-0.3622,-0.3612,-0.3594,-0.3578,-0.3554,-0.3533,-0.3521,-0.3505,-0.3484,-0.3455,-0.3461,-0.3449,-0.3447,-0.343,-0.3397,-0.3439,-0.3438,-0.343,-0.3354,-0.3348,-0.3341,-0.3399,-0.3398,-0.3397,-0.3355,0,-0.3614,-0.3574,-0.3571,-0.3534,-0.3514,-0.3518,-0.3497,-0.3483,-0.3476,-0.3457,-0.3449,-0.3428,-0.3439,-0.3431,-0.3414,-0.3405,-0.3381,-0.3408,-0.3378,-0.3377,-0.3381,-0.3334,-0.3328,-0.3289,-0.3349,-0.3348,-0.3348,0,-0.3567,-0.355,-0.3512,-0.3495,-0.3487,-0.3468,-0.3447,-0.343,-0.3414,-0.341,-0.3395,-0.3395,-0.3369,-0.3385,-0.3349,-0.3366,-0.3354,-0.3347,-0.3346,-0.3342,-0.336,-0.3328,-0.3276,-0.327,-0.3339,-0.334,-0.3341,0,-0.3539,-0.3507,-0.3479,-0.3471,-0.3451,-0.3438,-0.3429,-0.3413,-0.34,-0.3381,-0.3373,-0.3351,-0.3339,-0.3322,-0.3316,-0.3328,-0.3279,-0.3295,-0.3273,-0.3273,-0.3262,-0.3263,-0.3206,-0.3256,-0.3256,-0.3256,-0.3256,0,-0.3499,-0.3475,-0.3466,-0.3449,-0.3421,-0.3418,-0.339,-0.3381,-0.3367,-0.3347,-0.3349,-0.333,-0.3323,-0.3302,-0.3297,-0.3266,-0.3261,-0.3256,-0.3255,-0.3255,-0.3256,-0.3246,-0.3249,-0.3255,-0.3255,-0.3255,-0.3256,0,-0.3463,-0.3457,-0.3426,-0.341,-0.3405,-0.3385,-0.3371,-0.3353,-0.3346,-0.3321,-0.3314,-0.3303,-0.3279,-0.3271,-0.3241,-0.3238,-0.3201,-0.3203,-0.3207,-0.3206,-0.3185,-0.3187,-0.312,-0.311,-0.3167,-0.3167,-0.3166,0,-0.3438,-0.3419,-0.34,-0.3387,-0.3378,-0.3357,-0.3343,-0.3339,-0.3324,-0.3303,-0.3287,-0.3263,-0.3244,-0.3204,-0.3193,-0.3169,-0.317,-0.3148,-0.3166,-0.3167,-0.3167,-0.3168,-0.3165,-0.3144,-0.3144,-0.3143,-0.3143,0,-0.3392,-0.3389,-0.337,-0.335,-0.3333,-0.3317,-0.3301,-0.3289,-0.3282,-0.3265,-0.3241,-0.3225,-0.3195,-0.317,-0.3146,-0.3136,-0.3137,-0.3137,-0.3131,-0.313,-0.3133,-0.313,-0.3196,-0.3138,-0.3139,-0.3139,-0.3139,-0.314,-0.3359,-0.3342,-0.3326,-0.3304,-0.3292,-0.3276,-0.3258,-0.3249,-0.3229,-0.3204,-0.3202,-0.3174,-0.3156,-0.3125,-0.3113,-0.309,-0.3096,-0.3087,-0.3085,-0.3082,-0.308,-0.3137,-0.3086,-0.3086,-0.3086,-0.3086,-0.3086,0,-0.3313,-0.3302,-0.3282,-0.3259,-0.3242,-0.3246,-0.3227,-0.3212,-0.3188,-0.3172,-0.3152,-0.3122,-0.3098,-0.3084,-0.306,-0.3044,-0.3044,-0.3038,-0.3038,-0.3035,-0.3077,-0.3084,-0.3038,-0.3038,-0.3038,-0.3038,-0.3038,-0.3038,-0.3286,-0.3257,-0.3252,-0.3216,-0.3205,-0.3179,-0.3168,-0.3153,-0.314,-0.3107,-0.3087,-0.3078,-0.3062,-0.3036,-0.3013,-0.3009,-0.2999,-0.2992,-0.2989,-0.3028,-0.3033,-0.3037,-0.3044,-0.299,-0.299,-0.2949,-0.2949,-0.2948]},{"header":{"parameterUnit":"m.s-1","parameterCategory":1,"la1":30.2991,"la2":30.254,"lo1":-89.0895,"lo2":-89.0444,"dy":0.0017,"dx":0.0017,"nx":28,"ny":28,"refTime":"2024-03-28T09:00:00:Z","depth":0,"parameterNumber":3,"parameterNumberName":"V-component_of_WINDS"},"data":[0,0,0,0,0,0,0,0,0,0,0,0,0,0,0,0,0,0,0,0,0,0,0,0,0,0,0,0,0,0,0,0,0,0,0,0,0,0,0,0,0,0,0,0,0,0,0,0,0,0,0,0,0,0,0,0,0,0,-5.2402,-5.2403,0,-5.247,-5.2471,-5.2472,-5.2468,-5.2467,-5.2466,-5.2465,-5.2529,-5.2532,-5.2534,0,0,0,0,0,0,0,0,0,0,0,0,0,-5.2266,-5.2268,-5.2402,-5.2403,-5.2404,-5.247,-5.2471,-5.2472,-5.2468,-5.2467,-5.2465,-5.2464,-5.2528,-5.2531,-5.2534,0,0,0,0,0,0,0,0,0,0,0,0,0,-5.2328,-5.2269,-5.2402,-5.241,-5.2411,-5.247,-5.2471,-5.2472,-5.2468,-5.2467,-5.2465,-5.2464,-5.2527,-5.2531,-5.2535,-5.2588,0,0,-5.2547,-5.2549,0,0,0,0,0,0,0,0,-5.2325,-5.2333,-5.2408,-5.2409,-5.2411,-5.2459,-5.2446,-5.2511,-5.2468,-5.2446,-5.2465,-5.2463,-5.2507,-5.2512,-5.2528,-5.2591,-5.2594,-5.2547,-5.255,-5.2551,-5.2552,0,0,0,0,0,0,0,-5.232,-5.233,-5.2429,-5.2409,-5.2411,-5.2409,-5.2416,-5.2459,-5.2484,-5.2448,-5.2448,-5.2456,-5.2507,-5.2524,-5.2529,-5.2595,-5.2547,-5.2551,-5.2553,-5.2555,-5.2708,-5.271,0,0,0,0,0,0,-5.2315,-5.2327,-5.2427,-5.2431,-5.2364,-5.2413,-5.2421,-5.2445,-5.2483,-5.2488,-5.2458,-5.2456,-5.2518,-5.2525,-5.2532,-5.2599,-5.2551,-5.2555,-5.2557,-5.2706,-5.2708,-5.271,0,0,0,0,0,0,-5.2312,-5.2324,-5.2424,-5.2379,-5.2391,-5.2417,-5.2444,-5.2447,-5.2464,-5.249,-5.2494,-5.2471,-5.2517,-5.2526,-5.2575,-5.2601,-5.2557,-5.256,-5.2704,-5.2707,-5.2709,-5.2732,0,0,0,0,0,0,-5.2308,-5.2323,-5.2344,-5.2379,-5.2394,-5.2467,-5.2445,-5.2449,-5.2472,-5.247,-5.2504,-5.2508,-5.2517,-5.2569,-5.2579,-5.2605,-5.2563,-5.2702,-5.2705,-5.2708,-5.2729,-5.2735,-5.274,0,0,0,0,0,-5.2303,-5.2346,-5.2345,-5.2357,-5.2421,-5.2469,-5.2477,-5.2488,-5.2474,-5.2495,-5.2512,-5.2507,-5.2596,-5.2574,-5.2585,-5.2613,-5.27,-5.2704,-5.2708,-5.2726,-5.2734,-5.274,0,0,0,0,0,0,-5.231,-5.235,-5.235,-5.2406,-5.2434,-5.2468,-5.2495,-5.2495,-5.2527,-5.2524,-5.2534,-5.2542,-5.2592,-5.2607,-5.2582,-5.2668,-5.2646,-5.2653,-5.2656,-5.2663,-5.2669,-5.2665,-5.2567,0,0,0,0,0,-5.2318,-5.2355,-5.2388,-5.2434,-5.2448,-5.247,-5.249,-5.2497,-5.2526,-5.2538,-5.2558,-5.2585,-5.262,-5.2642,-5.2675,-5.2731,-5.2739,-5.2755,-5.2761,-5.2765,-5.2771,-5.2803,-5.2812,-5.2723,-5.2723,-5.2723,0,0,-5.2335,-5.2362,-5.2384,-5.2436,-5.2459,-5.2496,-5.2479,-5.2519,-5.2547,-5.2543,-5.2592,-5.2608,-5.2639,-5.2692,-5.2717,-5.2706,-5.2797,-5.277,-5.2774,-5.2777,-5.2808,-5.2817,-5.2824,-5.2725,-5.2725,-5.2725,0,0,-5.2386,-5.2409,-5.2452,-5.2476,-5.2511,-5.2526,-5.2536,-5.257,-5.2582,-5.2631,-5.263,-5.2662,-5.2721,-5.2744,-5.2764,-5.2826,-5.2823,-5.2836,-5.2865,-5.2897,-5.2904,-5.291,-5.2934,-5.2942,-5.2841,-5.2841,-5.2841,0,-5.2402,-5.246,-5.2472,-5.2514,-5.2537,-5.2538,-5.2581,-5.2603,-5.2647,-5.2662,-5.2651,-5.2727,-5.2747,-5.2807,-5.2823,-5.2838,-5.285,-5.2832,-5.2902,-5.2908,-5.2914,-5.2937,-5.2946,-5.2843,-5.2843,-5.2842,-5.2842,0,-5.2479,-5.2519,-5.2548,-5.2594,-5.262,-5.2662,-5.2681,-5.2706,-5.271,-5.2725,-5.2776,-5.2802,-5.2841,-5.2856,-5.2859,-5.2917,-5.291,-5.29,-5.2878,-5.2924,-5.2946,-5.2955,-5.2845,-5.2844,-5.2844,-5.2844,0,0,-5.2534,-5.2589,-5.26,-5.2622,-5.2662,-5.2693,-5.2735,-5.2776,-5.2798,-5.2828,-5.2864,-5.2915,-5.2907,-5.2929,-5.2935,-5.2963,-5.3013,-5.295,-5.2951,-5.2962,-5.308,-5.3088,-5.3098,-5.3011,-5.3013,-5.3014,-5.3078,0,-5.259,-5.2667,-5.2681,-5.2748,-5.2786,-5.2788,-5.2825,-5.2853,-5.2869,-5.2903,-5.2919,-5.2956,-5.2942,-5.2956,-5.2983,-5.3001,-5.3037,-5.2996,-5.3044,-5.3046,-5.3038,-5.3109,-5.3118,-5.3177,-5.3086,-5.3088,-5.3089,0,-5.2666,-5.2702,-5.2773,-5.2811,-5.2828,-5.2861,-5.2901,-5.2933,-5.2965,-5.2975,-5.3001,-5.3005,-5.3048,-5.3025,-5.3085,-5.3057,-5.3077,-5.3089,-5.3092,-5.3097,-5.3071,-5.3119,-5.3196,-5.3206,-5.3102,-5.3101,-5.31,0,-5.2702,-5.2767,-5.2819,-5.2838,-5.2883,-5.2907,-5.2926,-5.2958,-5.2982,-5.3016,-5.3033,-5.307,-5.3091,-5.312,-5.3134,-5.3115,-5.3194,-5.3171,-5.3203,-5.3203,-5.322,-5.3219,-5.3304,-5.3231,-5.3231,-5.323,-5.323,0,-5.2764,-5.2807,-5.2837,-5.2869,-5.2918,-5.2934,-5.2982,-5.3001,-5.3029,-5.3065,-5.3067,-5.31,-5.3116,-5.3151,-5.3161,-5.3211,-5.3219,-5.3228,-5.3231,-5.3229,-5.3228,-5.3243,-5.324,-5.3233,-5.3232,-5.3232,-5.3231,0,-5.2812,-5.2834,-5.2891,-5.293,-5.2941,-5.2976,-5.301,-5.3041,-5.3057,-5.3102,-5.3113,-5.3138,-5.318,-5.3196,-5.3246,-5.3253,-5.3311,-5.3309,-5.3301,-5.3302,-5.3334,-5.3332,-5.3432,-5.3447,-5.3363,-5.3364,-5.3365,0,-5.2851,-5.2886,-5.293,-5.2955,-5.2977,-5.3016,-5.3043,-5.3059,-5.3086,-5.3127,-5.3153,-5.3196,-5.3231,-5.3297,-5.3319,-5.3358,-5.3358,-5.3391,-5.3363,-5.3362,-5.3361,-5.3359,-5.3363,-5.3396,-5.3397,-5.3397,-5.3398,0,-5.2918,-5.2928,-5.2967,-5.301,-5.3042,-5.3076,-5.3109,-5.3129,-5.315,-5.318,-5.3224,-5.3252,-5.3305,-5.3347,-5.3387,-5.3406,-5.3406,-5.3406,-5.3416,-5.3415,-5.341,-5.3415,-5.3316,-5.3404,-5.3403,-5.3403,-5.3403,-5.3402,-5.2965,-5.2997,-5.3034,-5.3077,-5.3105,-5.3136,-5.3169,-5.319,-5.3228,-5.3274,-5.3281,-5.3329,-5.3362,-5.3417,-5.3438,-5.3475,-5.3466,-5.348,-5.3483,-5.3487,-5.349,-5.3403,-5.3482,-5.3481,-5.3481,-5.3481,-5.3481,0,-5.3034,-5.3059,-5.3099,-5.3147,-5.3181,-5.318,-5.3217,-5.3246,-5.3289,-5.3321,-5.3356,-5.3408,-5.3449,-5.3475,-5.3517,-5.3542,-5.3543,-5.3552,-5.3551,-5.3556,-5.3495,-5.3483,-5.3551,-5.3551,-5.3551,-5.3551,-5.3551,-5.3551,-5.3074,-5.3129,-5.3143,-5.3212,-5.3236,-5.3285,-5.3307,-5.3336,-5.3362,-5.342,-5.3456,-5.3474,-5.3504,-5.3548,-5.3586,-5.3593,-5.3608,-5.3619,-5.3625,-5.3567,-5.356,-5.3553,-5.3542,-5.3622,-5.3622,-5.3684,-5.3684,-5.3685]}]]